Regional Weather Roundup
Issued by NWS

Home | Current Version | Previous Version | Text Only | Print | Product List | Glossary Off
Versions: 1 2 3 4 5 6 7 8 9 10 11 12 13 14 15 16 17 18 19 20 21 22 23 24 25 26 27 28 29 30 31 32 33 34 35 36 37 38 39 40 41 42 43 44 45 46 47 48 49 50

000
ASUS44 KMEG 260200
RWRTN
TENNESSEE HOURLY STATE WEATHER ROUNDUP
NATIONAL WEATHER SERVICE MEMPHIS TN
800 PM CST SAT FEB 25 2017

TNZ002-004-019-021-049-052-054-088>092-260300-
WEST TENNESSEE

CITY           SKY/WX    TMP DP  RH WIND       PRES   REMARKS
MEMPHIS INTL   CLEAR     41  21  44 CALM      30.15R
NWS MEMPHIS      N/A     35 N/A N/A MISG        N/A
JACKSON        CLEAR     33  24  69 CALM      30.15R
UNION CITY     CLEAR     32  19  59 CALM      30.12S
PARIS          CLEAR     30  19  64 CALM      30.13R
$$

TNZ008-025-027-028-033-062-065-066-260300-
NORTH MIDDLE TENNESSEE

CITY           SKY/WX    TMP DP  RH WIND       PRES   REMARKS
NASHVILLE      CLEAR     39  20  46 N7        30.12R WCI  34
CLARKSVILLE    CLEAR     37  18  46 W3        30.13R
SMYRNA         CLEAR     39  23  52 N9        30.13R WCI  33
CROSSVILLE     CLEAR     33  17  51 NW3       30.05R
$$

TNZ061-075-076-078-094-096-097-260300-
SOUTH MIDDLE TENNESSEE

CITY           SKY/WX    TMP DP  RH WIND       PRES   REMARKS
TULLAHOMA      CLEAR     36  18  48 NW7       30.09R WCI  30
WINCHESTER     CLEAR     39  19  45 NW5       30.08R
MCMINNVILLE    CLEAR     36  21  55 N6        30.08R WCI  31
COLUMBIA       CLEAR     39  19  45 NW5       30.11R
SHELBYVILLE    CLEAR     39  21  48 NW8       30.11R WCI  34
$$

TNZ017-018-042-046-047-260300-
NORTHEAST TENNESSEE

CITY           SKY/WX    TMP DP  RH WIND       PRES   REMARKS
TRI CITIES     CLEAR     39  18  42 NW10      29.99R WCI  32
$$

TNZ012-013-036-069-073-074-260300-
CENTRAL EAST TENNESSEE

CITY           SKY/WX    TMP DP  RH WIND       PRES   REMARKS
KNOXVILLE      CLEAR     42  17  36 W10       30.05R
OAK RIDGE      CLEAR     42  17  36 CALM      30.08R
GATLINBURG     CLEAR     39  19  45 W7        30.04R WCI  34
$$

TNZ083-085-099-260300-
SOUTHEAST TENNESSEE

CITY           SKY/WX    TMP DP  RH WIND       PRES   REMARKS
CHATTANOOGA    CLEAR     44  20  38 NW12      30.07R
$$

SKY/WX REPORTED AS FAIR MEANS FEW OR NO CLOUDS BELOW
12 THOUSAND FEET.





USA.gov is the U.S. government's official web portal to all federal, state and local government web resources and services.